Change the Weather History Date:

Friday, January 17, 2014

  Actual Average (KEVV) Record (KEVV)
Temperature  
Mean Temperature 23 °F 32 °F  
Max Temperature 32 °F 41 °F 69 °F (1952)
Min Temperature 14 °F 24 °F -21 °F (1977)
Degree Days  
Heating Degree Days 42 33  
Month to date heating degree days 556  
Since 1 July heating degree days 2328  
Cooling Degree Days 0 0  
Month to date cooling degree days 0  
Year to date cooling degree days 0  
Moisture  
Dew Point 11 °F    
Average Humidity 72    
Maximum Humidity 93    
Minimum Humidity 58    
Precipitation  
Precipitation 0.00 in 0.10 in 2.46 in (1969)
Month to date precipitation 1.66  
Year to date precipitation 1.66  
Snow  
Snow 0.00 in 0.10 in 2.70 in (1994)
Month to date snowfall 1.8  
Since 1 July snowfall 5.3  
Snow Depth -    
Sea Level Pressure  
Sea Level Pressure 30.01 in    
Wind  
Wind Speed 13 mph (West)    
Max Wind Speed 24 mph    
Max Gust Speed 34 mph    
Visibility 9 miles    
Events Snow    
T = Trace of Precipitation, MM = Missing Value Source: NWS Daily Summary

Daily Weather History Graph

Daily Weather History Graph

Search for Another Location

Airport or City:

Trip Planner

Search our weather history database for the weather conditions in past years. The results will help you decide how hot, cold, wet, or windy it might be!

Date:

Astronomy

Jan. 17, 2014 Rise Set
Actual Time 7:08 AM CST 4:57 PM CST
Civil Twilight 6:39 AM CST 5:26 PM CST
Nautical Twilight 6:06 AM CST 5:59 PM CST
Astronomical Twilight 5:35 AM CST 6:30 PM CST
Moon 6:42 PM CST (1/17) 7:37 AM CST (1/17)
Length of Visible Light 10h 46m
Length of Day
9h 49m
Full, 98% of the Moon is Illuminated
Jan 17
Full
Jan 23
Last Quarter
Jan 30
New
Feb 6
First Quarter
Feb 14
Full

Hourly Weather History & Observations

Time (CST) Temp. Windchill Dew Point Humidity Pressure Visibility Wind Dir Wind Speed Gust Speed Precip Events Conditions
12:15 AM 32.0 °F 25.6 °F 30.2 °F 93% 29.77 in 10.0 mi West 6.9 mph - N/A   Overcast
12:35 AM 32.0 °F 20.5 °F 30.2 °F 93% 29.78 in 3.0 mi West 18.4 mph 26.5 mph N/A Snow Light Snow
12:55 AM 32.0 °F 21.6 °F 30.2 °F 93% 29.77 in 4.0 mi West 15.0 mph - N/A Snow Light Snow
1:15 AM 30.2 °F 17.4 °F 24.8 °F 80% 29.80 in 10.0 mi WNW 20.7 mph 27.6 mph N/A   Overcast
1:35 AM 28.4 °F 14.7 °F 21.2 °F 74% 29.81 in 10.0 mi WNW 21.9 mph 34.5 mph N/A   Overcast
1:55 AM 26.6 °F 11.7 °F 19.4 °F 74% 29.82 in 10.0 mi WNW 24.2 mph 28.8 mph N/A   Mostly Cloudy
2:15 AM 24.8 °F 10.0 °F 19.4 °F 80% 29.84 in 10.0 mi WNW 21.9 mph 26.5 mph N/A   Mostly Cloudy
2:35 AM 24.8 °F 11.5 °F 19.4 °F 80% 29.84 in 10.0 mi WNW 17.3 mph 21.9 mph N/A   Overcast
2:55 AM 24.8 °F 12.4 °F 19.4 °F 80% 29.85 in 10.0 mi WNW 15.0 mph - N/A   Overcast
3:15 AM 23.0 °F 11.1 °F 17.6 °F 80% 29.86 in 10.0 mi NW 12.7 mph 18.4 mph N/A   Mostly Cloudy
3:35 AM 23.0 °F 8.3 °F 17.6 °F 80% 29.86 in 10.0 mi WNW 19.6 mph 24.2 mph N/A   Overcast
3:55 AM 21.2 °F 6.8 °F 15.8 °F 80% 29.88 in 4.0 mi WNW 17.3 mph - N/A Snow Light Snow
4:15 AM 19.4 °F 3.6 °F 12.2 °F 74% 29.89 in 7.0 mi NW 19.6 mph 25.3 mph N/A Snow Light Snow
4:35 AM 19.4 °F 3.6 °F 12.2 °F 74% 29.90 in 10.0 mi WNW 19.6 mph 24.2 mph N/A   Overcast
4:55 AM 17.6 °F 2.7 °F 10.4 °F 73% 29.92 in 10.0 mi WNW 16.1 mph 19.6 mph N/A   Overcast
5:15 AM 17.6 °F 1.7 °F 8.6 °F 68% 29.93 in 10.0 mi WNW 18.4 mph 24.2 mph N/A   Overcast
5:35 AM 17.6 °F 2.2 °F 8.6 °F 68% 29.93 in 10.0 mi NW 17.3 mph 23.0 mph N/A   Overcast
5:55 AM 17.6 °F 2.2 °F 6.8 °F 63% 29.94 in 10.0 mi WNW 17.3 mph 25.3 mph N/A   Overcast
6:15 AM 15.8 °F 1.4 °F 8.6 °F 73% 29.95 in 10.0 mi WNW 13.8 mph - N/A   Overcast
6:35 AM 15.8 °F 0.3 °F 5.0 °F 62% 29.95 in 10.0 mi West 16.1 mph 23.0 mph N/A   Scattered Clouds
6:55 AM 14.0 °F -0.2 °F 5.0 °F 67% 29.96 in 10.0 mi WNW 12.7 mph 18.4 mph N/A   Scattered Clouds
7:15 AM 15.8 °F 0.9 °F 5.0 °F 62% 29.97 in 10.0 mi WNW 15.0 mph 20.7 mph N/A   Overcast
7:35 AM 15.8 °F 2.1 °F 6.8 °F 68% 29.98 in 10.0 mi West 12.7 mph 18.4 mph N/A   Overcast
7:55 AM 15.8 °F 2.1 °F 8.6 °F 73% 29.98 in 10.0 mi West 12.7 mph 19.6 mph N/A   Overcast
8:15 AM 15.8 °F 1.4 °F 5.0 °F 62% 29.99 in 10.0 mi WNW 13.8 mph - N/A   Overcast
8:35 AM 15.8 °F 2.1 °F 6.8 °F 68% 30.00 in 10.0 mi WNW 12.7 mph - N/A   Overcast
8:55 AM 15.8 °F 2.1 °F 6.8 °F 68% 30.00 in 10.0 mi WNW 12.7 mph 18.4 mph N/A   Overcast
9:15 AM 15.8 °F 5.1 °F 8.6 °F 73% 30.01 in 10.0 mi NW 8.1 mph - N/A   Overcast
9:35 AM 15.8 °F 1.4 °F 8.6 °F 73% 30.01 in 4.0 mi WNW 13.8 mph - N/A Snow Light Snow
9:55 AM 15.8 °F 1.4 °F 10.4 °F 79% 30.02 in 4.0 mi NW 13.8 mph - N/A   Haze
10:15 AM 15.8 °F 2.1 °F 8.6 °F 73% 30.03 in 10.0 mi WNW 12.7 mph 16.1 mph N/A   Overcast
10:35 AM 15.8 °F 2.1 °F 6.8 °F 68% 30.03 in 10.0 mi West 12.7 mph - N/A   Overcast
10:55 AM 17.6 °F 3.2 °F 6.8 °F 63% 30.03 in 10.0 mi West 15.0 mph - N/A   Overcast
11:15 AM 17.6 °F 2.7 °F 6.8 °F 63% 30.03 in 10.0 mi West 16.1 mph 20.7 mph N/A   Overcast
11:35 AM 17.6 °F 3.2 °F 6.8 °F 63% 30.02 in 10.0 mi West 15.0 mph - N/A   Overcast
11:55 AM 19.4 °F 6.6 °F 8.6 °F 63% 30.02 in 10.0 mi WSW 12.7 mph 19.6 mph N/A   Overcast
12:15 PM 17.6 °F 3.7 °F 5.0 °F 58% 30.01 in 10.0 mi West 13.8 mph 19.6 mph N/A   Overcast
12:35 PM 17.6 °F 3.2 °F 8.6 °F 68% 30.01 in 10.0 mi West 15.0 mph - N/A   Overcast
12:55 PM 17.6 °F 2.7 °F 8.6 °F 68% 30.02 in 4.0 mi West 16.1 mph 19.6 mph N/A Snow Light Snow
1:15 PM 17.6 °F 3.2 °F 6.8 °F 63% 30.02 in 10.0 mi West 15.0 mph - N/A   Mostly Cloudy
1:35 PM 17.6 °F 4.3 °F 8.6 °F 68% 30.03 in 10.0 mi West 12.7 mph 17.3 mph N/A   Mostly Cloudy
1:55 PM 17.6 °F 3.7 °F 6.8 °F 63% 30.03 in 10.0 mi West 13.8 mph 18.4 mph N/A   Overcast
2:15 PM 17.6 °F 3.2 °F 6.8 °F 63% 30.05 in 10.0 mi West 15.0 mph 18.4 mph N/A   Overcast
2:35 PM 17.6 °F 4.3 °F 8.6 °F 68% 30.06 in 10.0 mi West 12.7 mph - N/A   Overcast
2:55 PM 17.6 °F 3.7 °F 8.6 °F 68% 30.07 in 10.0 mi West 13.8 mph 18.4 mph N/A   Overcast
3:15 PM 17.6 °F 5.0 °F 8.6 °F 68% 30.08 in 10.0 mi West 11.5 mph - N/A   Overcast
3:35 PM 17.6 °F 5.0 °F 6.8 °F 63% 30.08 in 10.0 mi WSW 11.5 mph 18.4 mph N/A   Overcast
3:55 PM 17.6 °F 3.7 °F 8.6 °F 68% 30.09 in 10.0 mi West 13.8 mph 17.3 mph N/A   Overcast
4:15 PM 17.6 °F 3.7 °F 8.6 °F 68% 30.09 in 10.0 mi WSW 13.8 mph 18.4 mph N/A   Overcast
4:35 PM 17.6 °F 8.2 °F 8.6 °F 68% 30.09 in 10.0 mi West 6.9 mph - N/A   Overcast
4:55 PM 17.6 °F 6.4 °F 8.6 °F 68% 30.10 in 10.0 mi West 9.2 mph - N/A   Overcast
5:15 PM 17.6 °F 7.3 °F 8.6 °F 68% 30.11 in 10.0 mi West 8.1 mph - N/A   Overcast
5:35 PM 17.6 °F 8.2 °F 8.6 °F 68% 30.11 in 10.0 mi West 6.9 mph - N/A   Overcast
5:55 PM 17.6 °F 8.2 °F 8.6 °F 68% 30.11 in 10.0 mi West 6.9 mph - N/A   Overcast
6:15 PM 17.6 °F 7.3 °F 8.6 °F 68% 30.12 in 10.0 mi West 8.1 mph - N/A   Overcast
6:35 PM 17.6 °F 7.3 °F 10.4 °F 73% 30.12 in 10.0 mi WSW 8.1 mph - N/A   Overcast
6:55 PM 17.6 °F 7.3 °F 10.4 °F 73% 30.12 in 10.0 mi WSW 8.1 mph - N/A   Overcast
7:15 PM 17.6 °F 7.3 °F 10.4 °F 73% 30.12 in 10.0 mi WSW 8.1 mph - N/A   Overcast
7:35 PM 17.6 °F 9.3 °F 10.4 °F 73% 30.12 in 10.0 mi WSW 5.8 mph - N/A   Overcast
7:55 PM 17.6 °F 8.2 °F 10.4 °F 73% 30.12 in 10.0 mi West 6.9 mph - N/A   Overcast
8:15 PM 17.6 °F 8.2 °F 10.4 °F 73% 30.12 in 10.0 mi West 6.9 mph - N/A   Overcast
8:35 PM 17.6 °F 12.3 °F 10.4 °F 73% 30.12 in 10.0 mi WSW 3.5 mph - N/A   Overcast
8:55 PM 19.4 °F 11.5 °F 12.2 °F 74% 30.12 in 10.0 mi WSW 5.8 mph - N/A   Overcast
9:15 PM 17.6 °F - 12.2 °F 79% 30.12 in 10.0 mi Calm Calm - N/A   Overcast
9:35 PM 17.6 °F 12.3 °F 12.2 °F 79% 30.11 in 10.0 mi WSW 3.5 mph - N/A   Overcast
9:55 PM 19.4 °F - 12.2 °F 74% 30.11 in 10.0 mi Calm Calm - N/A   Overcast
10:15 PM 19.4 °F - 12.2 °F 74% 30.11 in 10.0 mi Calm Calm - N/A   Overcast
10:35 PM 19.4 °F - 14.0 °F 80% 30.10 in 10.0 mi Calm Calm - N/A   Overcast
10:55 PM 19.4 °F - 14.0 °F 80% 30.10 in 10.0 mi Calm Calm - N/A   Overcast
11:15 PM 19.4 °F - 14.0 °F 80% 30.09 in 10.0 mi Calm Calm - N/A   Overcast
11:35 PM 19.4 °F - 14.0 °F 80% 30.09 in 10.0 mi Calm Calm - N/A   Overcast
11:55 PM 17.6 °F - 12.2 °F 79% 30.08 in 10.0 mi Calm Calm - N/A   Overcast